www.pogodaiklimat.ru

Погода и климат >> Архив погоды >> Норвегия >> Тафьорд


ПОГОДА в Тафьорде

  • Прогноз погоды в Тафьорде
  • Монитор погоды в Тафьорде

АРХИВ ПОГОДЫ в Тафьорде

Время (UTC), дата Ветер
(напр.,м/с)
 
Видим.   Явления Облачность Т
(С)
Тd
(С)
f
(%)
Тe
(С)
Тes
(С)
Комфортность P
(гПа)
Po
(гПа)
Тmin
(С)
Tmax
(С)
R
(мм)
R24
(мм)
S
(см)
16 16.01 Ю 1
{2}
н/о н/о -1.9 -3.2 91 -4 -4 986.9 984.7
17 16.01 В 3
{4}
н/о н/о -2.1 -3.7 89 -7 -7 987.2 985.0
18 16.01 Ю 1
{5}
н/о н/о -2.1 -4.0 87 -4 -4 987.2 985.0 -2.3 +0.7 0.1
19 16.01 Ю 1
{3}
н/о н/о -1.9 -3.8 87 -4 -4 987.6 985.4
20 16.01
{4}
н/о н/о -2.1 -3.2 92 988.1 985.9 0.4
21 16.01 В 1
{4}
н/о н/о -2.3 -3.3 93 -5 -5 988.1 985.9 0.1
22 16.01 Ю 1
{4}
н/о н/о -2.3 -3.3 93 -5 -5 988.2 986.0 0.1
23 16.01 З 1
{5}
н/о н/о -2.3 -3.5 91 -5 -5 988.5 986.3
00 17.01 Ю 1
{5}
н/о н/о -2.1 -3.0 94 -4 -4 989.2 987.0 1
01 17.01 Ю 1
{3}
н/о н/о -2.0 -2.7 95 -4 -4 989.9 987.7 2
02 17.01 штиль 0
{1}
н/о н/о -2.1 -2.8 95 -3 -3 990.8 988.6 0.5
03 17.01 В 2
{4}
н/о н/о -2.3 -3.0 95 -6 -6 991.7 989.5 0.1
04 17.01 штиль 0 н/о н/о -2.2 -2.9 95 -4 -4 992.8 990.6 0.6
05 17.01 С 2
{3}
н/о н/о -1.6 -2.6 93 -6 -6 993.9 991.7 0.2
06 17.01 С 1
{4}
н/о н/о -1.6 -2.9 91 -4 -4 995.0 992.8 -2.6 -1.4 0.1
07 17.01
{5}
н/о н/о -1.4 -3.1 88 996.5 994.3 0.1
08 17.01 Ю 1
{5}
н/о н/о -3.3 -4.7 90 -6 -6 998.0 995.8
09 17.01 С 1
{4}
н/о н/о -3.5 -4.5 93 -6 -6 999.1 996.9
10 17.01 штиль 0
{2}
н/о н/о -2.9 -3.9 93 -4 -4 999.9 997.7
11 17.01 штиль 0
{2}
н/о н/о -2.4 -3.5 92 -4 -4 1001.1 998.9 0.4
12 17.01 С 1
{5}
н/о н/о -2.2 -3.1 94 -5 -5 1001.5 999.3 3
13 17.01 С 1
{4}
н/о н/о -2.3 -3.2 94 -5 -5 1001.9 999.7 2
14 17.01 В 1
{3}
н/о н/о -2.2 -2.9 95 -5 -5 1002.4 1000.2 2
15 17.01 СЗ 3
{8}
н/о н/о -1.9 -2.8 94 -7 -7 1003.0 1000.8 1
16 17.01
{5}
н/о н/о -1.4 -2.5 92 1004.1 1001.9 0.8
17 17.01 С 5
{8}
н/о н/о -1.4 -2.8 90 -8 -8 1004.5 1002.3 0.7
18 17.01
{8}
н/о н/о -1.4 -2.8 90 1005.3 1003.1 -3.8 -1.1 1
19 17.01 С 5
{8}
н/о н/о -1.9 -2.8 94 -9 -9 1006.1 1003.9 1
20 17.01 С 1
{9}
н/о н/о -2.0 -2.9 94 -4 -4 1006.2 1004.0 0.8
21 17.01 С 3
{7}
н/о н/о -1.9 -2.6 95 -7 -7 1007.1 1004.9 1
22 17.01 Ю 1
{4}
н/о н/о -2.0 -2.9 94 -4 -4 1006.9 1004.7 1
23 17.01 В 1
{4}
н/о н/о -2.4 -3.3 94 -5 -5 1006.5 1004.3 0.1
00 18.01 штиль 0
{9}
н/о н/о -2.5 -3.4 94 -4 -4 1006.5 1004.3 0.1
01 18.01 В 1
{1}
н/о н/о -2.5 -3.2 95 -5 -5 1006.2 1004.0 0.2
02 18.01 СЗ 1
{2}
н/о н/о -2.5 -3.2 95 -5 -5 1006.5 1004.3 0.8
03 18.01 штиль 0
{1}
н/о н/о -2.5 -3.2 95 -4 -4 1006.4 1004.2 0.7
04 18.01 СВ 1
{2}
н/о н/о -2.5 -3.2 95 -5 -5 1006.7 1004.5 2
05 18.01 С 1
{5}
н/о н/о -2.2 -2.9 95 -5 -5 1007.0 1004.8 0.4
06 18.01 В 2
{5}
н/о н/о -2.0 -2.7 95 -6 -6 1007.0 1004.8 -2.6 -1.4 0.1
07 18.01 СВ 1
{4}
н/о н/о -1.9 -2.6 95 -4 -4 1007.5 1005.3 0.7
08 18.01 Ю 1
{4}
н/о н/о -1.5 -2.1 96 -4 -4 1008.2 1006.0 0.6
09 18.01 СВ 1
{2}
н/о н/о -1.2 -1.8 96 -4 -4 1009.0 1006.8 1
10 18.01 штиль 0
{3}
н/о н/о -1.1 -1.8 95 -2 -2 1009.6 1007.4 0.2
11 18.01 Ю 1
{4}
н/о н/о -1.7 -2.4 95 -4 -4 1009.9 1007.7
12 18.01 С 1
{4}
н/о н/о -2.1 -3.1 93 -4 -4 1010.0 1007.8
13 18.01 штиль 0
{1}
н/о н/о -1.3 -2.3 93 -3 -3 1010.1 1007.9
14 18.01 Ю 1
{4}
н/о н/о -2.6 -3.6 93 -5 -5 1010.3 1008.1
15 18.01 Ю 1
{3}
н/о н/о -3.0 -4.5 89 -5 -5 1010.3 1008.1
16 18.01 Ю 1
{3}
н/о н/о -3.4 -4.5 92 -6 -6 1010.4 1008.2
17 18.01 Ю 1
{2}
н/о н/о -3.3 -4.3 93 -6 -6 1010.6 1008.4
18 18.01 Ю 1
{4}
н/о н/о -3.1 -4.2 92 -5 -5 1010.6 1008.4 -3.6 -1.0
19 18.01 штиль 0
{2}
н/о н/о -2.8 -3.8 93 -4 -4 1010.4 1008.2
20 18.01 Ю 1
{1}
н/о н/о -2.8 -3.7 94 -5 -5 1010.4 1008.2
21 18.01 ЮВ 1
{2}
н/о н/о -2.7 -3.7 93 -5 -5 1010.4 1008.2 0.1
22 18.01 Ю 1
{1}
н/о н/о -2.6 -3.5 94 -5 -5 1009.6 1007.4 0.2
23 18.01 штиль 0
{2}
н/о н/о -2.6 -3.3 95 -4 -4 1008.9 1006.7 0.5
00 19.01 Ю 1
{2}
н/о н/о -2.4 -3.1 95 -5 -5 1008.9 1006.7 0.9
01 19.01 Ю 1
{2}
н/о н/о -2.3 -3.0 95 -5 -5 1008.5 1006.3 2
02 19.01 штиль 0
{2}
н/о н/о -2.3 -3.0 95 -4 -4 1008.1 1005.9 2
03 19.01 штиль 0
{2}
н/о н/о -2.1 -2.7 96 -3 -3 1008.0 1005.8 3
04 19.01 ЮВ 1 н/о н/о -1.9 -2.5 96 -4 -4 1008.0 1005.8 2
05 19.01 ЮВ 1
{3}
н/о н/о -1.7 -2.3 96 -4 -4 1008.5 1006.3 1
06 19.01 СВ 1
{3}
н/о н/о -1.5 -2.1 96 -4 -4 1008.8 1006.6 -3.1 -1.5 0.6
07 19.01 СЗ 4
{7}
н/о н/о +0.3 -0.8 92 -5 -5 1009.4 1007.2 0.2
08 19.01 С 2
{7}
н/о н/о +1.4 -2.0 78 -2 -2 1010.3 1008.1 0.1
09 19.01 СВ 1
{4}
н/о н/о -0.1 -1.6 90 -2 -2 1011.0 1008.8
10 19.01 СВ 4
{9}
н/о н/о +1.7 -4.3 64 -3 -3 1011.4 1009.2 0.1
11 19.01 СЗ 1
{5}
н/о н/о -0.4 -2.1 88 -2 -2 1012.0 1009.8
12 19.01 С 3
{9}
н/о н/о +0.6 -3.3 75 -4 -4 1012.0 1009.8
13 19.01 С 4
{7}
н/о н/о +0.8 -3.1 75 -4 -4 1012.2 1010.0
14 19.01 СВ 4
{7}
н/о н/о +0.7 -3.6 73 -4 -4 1012.1 1009.9
15 19.01 СЗ 3
{7}
н/о н/о +0.7 -3.2 75 -4 -4 1012.6 1010.4
16 19.01 СВ 4
{6}
н/о н/о +0.5 -3.2 76 -5 -5 1013.1 1010.9
17 19.01 СВ 5
{7}
н/о н/о +0.3 -2.7 80 -6 -6 1013.6 1011.4 0.1
18 19.01 СВ 3
{7}
н/о н/о +0.3 -2.9 79 -4 -4 1014.0 1011.8 -1.5 +2.2
19 19.01 ЮВ 3
{5}
н/о н/о -0.6 -2.1 90 -5 -5 1014.2 1012.0
20 19.01
{5}
н/о н/о -0.4 -2.3 87 1014.8 1012.6 0.1
21 19.01 Ю 1
{5}
н/о н/о -1.8 -2.9 92 -4 -4 1015.1 1012.9
22 19.01 штиль 0
{2}
н/о н/о -1.9 -2.8 94 -3 -3 1015.7 1013.5 0.1
23 19.01 Ю 1
{2}
н/о н/о -1.6 -2.6 93 -4 -4 1016.2 1014.0 0.1
00 20.01 Ю 1
{5}
н/о н/о -2.0 -2.9 94 -4 -4 1016.5 1014.3
01 20.01 н/о
02 20.01 штиль 0
{1}
н/о н/о -2.5 -3.2 95 -4 -4 1017.1 1014.9 0.1
03 20.01 Ю 1
{2}
н/о н/о -3.4 -4.1 95 -6 -6 1017.0 1014.8
04 20.01 Ю 1 н/о н/о -4.2 -5.1 93 -7 -7 1017.1 1014.9
05 20.01 В 1
{3}
н/о н/о -4.0 -5.8 87 -6 -6 1017.2 1015.0
06 20.01 Ю 4
{9}
н/о н/о -2.6 -9.5 59 -8 -8 1017.1 1014.9 -4.6 +0.6
07 20.01 Ю 5
{10}
н/о н/о -2.5 -10.3 55 -9 -9 1017.1 1014.9
08 20.01 Ю 4
{9}
н/о н/о -3.1 -10.2 58 -9 -9 1017.2 1015.0
09 20.01 Ю 5
{9}
н/о н/о -2.5 -11.2 51 -9 -9 1017.1 1014.9
10 20.01 Ю 4
{10}
н/о н/о -2.3 -11.5 49 -8 -8 1017.0 1014.8
11 20.01 Ю 3
{10}
н/о н/о -1.8 -11.3 48 -6 -6 1016.6 1014.4
12 20.01 Ю 5
{10}
н/о н/о -1.6 -11.9 45 -7 -7 1016.2 1014.0
13 20.01 Ю 5
{10}
н/о н/о -1.9 -12.4 44 -8 -8 1015.9 1013.7
14 20.01 Ю 5
{11}
н/о н/о -1.7 -13.1 41 -7 -7 1015.4 1013.2
15 20.01 ЮВ 5
{11}
н/о н/о -1.3 -13.0 41 -7 -7 1014.6 1012.4
16 20.01 ЮВ 6
{13}
н/о н/о -1.4 -13.1 41 -8 -8 1014.2 1012.0
17 20.01 ЮВ 4
{12}
н/о н/о -1.1 -12.3 42 -6 -6 1013.4 1011.2
18 20.01 Ю 5
{13}
н/о н/о +0.3 -12.6 37 -5 -5 1012.4 1010.2 -3.4 +0.3
19 20.01 ЮВ 8
{16}
н/о н/о +0.4 -12.2 38 -6 -6 1011.8 1009.6 0.1
20 20.01 ЮВ 10
{17}
н/о н/о +0.3 -10.7 43 -7 -7 1011.5 1009.3 0.1
21 20.01 ЮВ 10
{17}
н/о н/о -0.1 -7.2 59 -8 -8 1011.3 1009.1 0.1
22 20.01 ЮВ 9
{16}
н/о н/о +0.1 -9.0 50 -7 -7 1010.7 1008.5 0.6
23 20.01 ЮВ 8
{15}
н/о н/о -0.2 -6.4 63 -7 -7 1010.6 1008.4 0.2
00 21.01 ЮВ 7
{17}
н/о н/о -0.4 -6.2 65 -7 -7 1010.4 1008.2 0.3
01 21.01 ЮВ 6
{13}
н/о н/о +0.7 -8.5 50 -5 -5 1010.2 1008.0
02 21.01 н/о
03 21.01 ЮВ 5
{12}
н/о н/о -0.2 -5.1 70 -6 -6 1011.2 1009.0 0.4
04 21.01 С 1 н/о н/о -1.2 -2.7 90 -3 -3 1012.0 1009.8 0.3
05 21.01 штиль 0
{1}
н/о н/о -1.5 -2.4 94 -3 -3 1012.6 1010.4 0.7
06 21.01 Ю 2
{14}
н/о н/о -1.3 -2.3 93 -5 -5 1012.8 1010.6 -1.6 +0.9 0.6
07 21.01 ЮВ 1
{2}
н/о н/о -2.1 -3.0 94 -4 -4 1013.3 1011.1 0.1
08 21.01 С 1
{4}
н/о н/о -2.0 -3.0 93 -4 -4 1014.0 1011.8 0.2
09 21.01 Ю 1
{3}
н/о н/о -2.0 -2.7 95 -4 -4 1014.1 1011.9 0.1
10 21.01 Ю 1
{4}
н/о н/о -2.6 -3.5 94 -5 -5 1014.2 1012.0
11 21.01
{3}
н/о н/о -1.9 -2.6 95 1014.4 1012.2
12 21.01 Ю 1
{4}
н/о н/о -2.1 -3.1 93 -4 -4 1013.9 1011.7
13 21.01 Ю 1
{4}
н/о н/о -2.1 -3.0 94 -4 -4 1013.8 1011.6
14 21.01 штиль 0
{2}
н/о н/о -2.2 -3.2 93 -3 -3 1013.2 1011.0
15 21.01 СВ 1
{4}
н/о н/о -3.8 -4.9 92 -6 -6 1013.3 1011.1
16 21.01 ЮВ 1
{3}
н/о н/о -4.2 -5.0 94 -7 -7 1013.0 1010.8
17 21.01 Ю 5
{8}
н/о н/о +1.1 -8.9 47 -4 -4 1012.7 1010.5
18 21.01 ЮВ 5
{10}
н/о н/о +1.1 -9.2 46 -4 -4 1012.3 1010.1 -4.4 +1.5
19 21.01 ЮВ 6
{13}
н/о н/о +1.3 -9.8 43 -4 -4 1011.5 1009.3
20 21.01 ЮВ 8
{15}
н/о н/о +0.9 -10.2 43 -5 -5 1011.1 1008.9 0.1
21 21.01 ЮВ 8
{14}
н/о н/о +0.8 -10.9 41 -6 -6 1010.6 1008.4 0.2
22 21.01 ЮВ 9
{14}
н/о н/о +0.6 -10.8 42 -6 -6 1010.0 1007.8 0.2
23 21.01 ЮВ 9
{16}
н/о н/о +0.4 -11.0 42 -6 -6 1009.5 1007.3 0.2
00 22.01 ЮВ 8
{16}
н/о н/о +0.6 -11.4 40 -6 -6 1009.2 1007.0 0.3
01 22.01 ЮВ 8
{16}
н/о н/о +0.3 -11.6 40 -6 -6 1008.5 1006.3 0.2
02 22.01 ЮВ 9
{16}
н/о н/о +0.2 -12.1 39 -7 -7 1008.1 1005.9
03 22.01 Ю 11
{16}
н/о н/о +0.4 -11.9 39 -7 -7 1007.3 1005.1 0.1
04 22.01 ЮВ 10
{17}
н/о н/о +0.2 -12.4 38 -7 -7 1006.9 1004.7 0.2
05 22.01 ЮВ 11
{19}
н/о н/о +0.1 -12.5 38 -7 -7 1006.3 1004.1 0.1
06 22.01 ЮВ 11
{19}
н/о н/о +0.2 -12.4 38 -7 -7 1006.1 1003.9 -0.1 +1.4 0.2
07 22.01 ЮВ 10
{16}
н/о н/о +0.2 -12.4 38 -7 -7 1005.6 1003.4 0.1
08 22.01 ЮВ 12
{18}
н/о н/о 0.0 -11.0 43 -8 -8 1005.1 1002.9
09 22.01 ЮВ 9
{17}
н/о н/о +0.9 -11.7 38 -6 -6 1004.6 1002.4 0.5
10 22.01 ЮВ 11
{20}
н/о н/о +0.3 -12.3 38 -7 -7 1004.6 1002.4 0.4
11 22.01 ЮВ 11
{18}
н/о н/о +0.4 -11.9 39 -7 -7 1004.4 1002.2 0.2
12 22.01 ЮВ 12
{20}
н/о н/о 0.0 -10.7 44 -8 -8 1004.1 1001.9 0.4
13 22.01 ЮВ 12
{20}
н/о н/о -0.6 -11.0 45 -9 -9 1003.7 1001.5 0.2
14 22.01 ЮВ 14
{20}
н/о н/о -1.6 -11.6 46 -11 -11 1003.6 1001.4 0.8
15 22.01 ЮВ 13
{20}
н/о н/о -1.3 -11.3 46 -10 -10 1003.1 1000.9
16 22.01 ЮВ 11
{21}
н/о н/о -1.5 -11.5 46 -10 -10 1003.0 1000.8 0.7
17 22.01 ЮВ 12
{19}
н/о н/о -1.4 -11.4 46 -10 -10 1002.8 1000.6
18 22.01 ЮВ 11
{21}
н/о н/о -1.8 -11.8 46 -10 -10 1002.8 1000.6 -2.1 +1.1 0.4
19 22.01 ЮВ 11
{21}
н/о н/о -2.0 -11.7 47 -10 -10 1002.7 1000.5 0.7
20 22.01 ЮВ 12
{20}
н/о н/о -2.3 -11.8 48 -11 -11 1002.8 1000.6 0.2
21 22.01 ЮВ 11
{22}
н/о н/о -2.1 -11.8 47 -11 -11 1002.6 1000.4 0.3
22 22.01 ЮВ 11
{20}
н/о н/о -1.9 -11.6 47 -10 -10 1002.4 1000.2 0.8
23 22.01 ЮВ 11
{20}
н/о н/о -1.5 -11.5 46 -10 -10 1001.9 999.7 0.4
00 23.01 ЮВ 12
{22}
н/о н/о -1.9 -11.9 46 -11 -11 1002.1 999.9 3
01 23.01 ЮВ 10
{20}
н/о н/о -1.4 -11.4 46 -9 -9 1002.0 999.8 0.2
02 23.01 ЮВ 8
{19}
н/о н/о -1.0 -11.1 46 -8 -8 1002.0 999.8
03 23.01 ЮВ 7
{16}
н/о н/о -0.8 -10.9 46 -7 -7 1001.9 999.7
04 23.01 ЮВ 8 н/о н/о -0.1 -10.5 45 -7 -7 1001.8 999.6
05 23.01 ЮВ 7
{16}
н/о н/о +0.4 -11.3 41 -6 -6 1002.0 999.8
06 23.01 ЮВ 7
{20}
н/о н/о +0.6 -11.1 41 -5 -5 1002.1 999.9 -2.5 +0.6
07 23.01 ЮВ 9
{17}
н/о н/о +0.8 -10.6 42 -6 -6 1002.3 1000.1
08 23.01 ЮВ 6
{15}
н/о н/о +0.6 -11.1 41 -5 -5 1002.9 1000.7
09 23.01 ЮВ 9
{14}
н/о н/о +0.9 -10.8 41 -6 -6 1003.1 1000.9
10 23.01 ЮВ 8
{15}
н/о н/о +1.3 -10.7 40 -5 -5 1003.3 1001.1
11 23.01 ЮВ 9
{15}
н/о н/о +1.3 -11.1 39 -5 -5 1003.5 1001.3
12 23.01 ЮВ 8
{17}
н/о н/о +1.0 -11.0 40 -5 -5 1003.6 1001.4
13 23.01 ЮВ 9
{15}
н/о н/о +1.1 -11.2 39 -6 -6 1003.7 1001.5
14 23.01 ЮВ 9
{16}
н/о н/о +1.2 -11.2 39 -5 -5 1003.8 1001.6

 

Местоположение метеостанции Тафьорд (Норвегия): широта 62.23 долгота 7.42 высота над уровнем моря 11 м.

В архиве по умолчанию представлена погода в Тафьорде за последнюю неделю. Архивные данные за месяц целиком и за предыдущие месяцы, начиная с января 2011 года, Вы можете получить, выбрав интересующий диапазон дат из раскрывающегося списка и нажав кнопку "Ввод!".


*Определитесь, кто Вы:
робот инопланетянин человек

Внимание! Время в таблицах - всемирное. Для получения местного времени необходимо прибавить поправку, которая равна 1 ч.

Смотрите также архив погоды в соседних городах и на ближайших метеорологических станциях:

Погода в Гротли (Норвегия) (26 км)
Погода на Маннене (Норвегия) (31 км)
Погода в Марстейне (Норвегия) (33 км)
Погода в Бьорли (Норвегия) (41 км)
Погода в Лебергсфелле (Норвегия) (43 км)
Погода в Брате (Норвегия) (44 км)
Погода в Стрын-Крокене (Норвегия) (57 км)
Погода в Рекдале (Норвегия) (58 км)
Погода в Молдэ аэропорту (Норвегия) (58 км)
Погода в Олесунне (Норвегия) (68 км)

Пояснения к столбцам:

Ветер - указаны скорость ветра в м/с - средняя за 10 мин, порывы в срок и между сроками (в фигурных скобках) и направление, откуда дует ветер: С - северный, СВ - северо-восточный, В - восточный, ЮВ - юго-восточный, Ю - южный, ЮЗ - юго-западный, З - западный, СЗ - северо-западный.
Видимость - горизонтальная дальность видимости в метрах или километрах. При видимости от 1 до 10 км при отсутствии осадков обычно наблюдается дымка, при ухудшении видимости до 1 км и менее - туман. В сухую погоду видимость может ухудшаться дымом, пылью или мглою.
Явления - указаны атмосферные явления, наблюдавшиеся в срок или в последний час перед сроком; фигурными скобками обозначены явления, наблюдавшиеся между сроками (за 1-3 часа до срока); квадратными скобками обозначены град или гололедные отложения с указанием их диаметра в мм.
Облачность - указаны через наклонную черту общая и нижняя облачность в баллах и высота нижней границы облаков в метрах; квадратными скобками обозначены формы облаков: Ci - перистые, Cs - перисто-слоистые, Cc - перисто-кучевые, Ac - высококучевые, As - высокослоистые, Sc - слоисто-кучевые, Ns - слоисто-дождевые, Cu - кучевые, Cb - кучево-дождевые. Подробнее классификацию облаков см. в Атласе облаков (PDF).
T - Температура воздуха - температура, измеренная на высоте 2 м над землей.
Td - Температура точки росы - температура, при понижении до которой содержащийся в воздухе водяной пар достигнет насыщения.
f - Относительная влажность воздуха - влажноcть воздуха, измеренная на высоте 2 м над землей.
Te - Эффективная температура - температура, которую ощущает одетый по сезону человек в тени. Характеристика душности погоды. При расчете учитывается влияние влажности воздуха и скорости ветра на теплоощущения человека.
Tes - Эффективная температура на солнце - температура, которую ощущает человек, с поправкой на солнечный нагрев. Характеристика знойности погоды. Зависит от высоты солнца над горизонтом, облачности и скорости ветра. Ночью, в пасмурную погоду, а также при ветре 12 м/с и более поправка равна нулю.
P - Атмосферное давление - приведенное к уровню моря атмосферное давление.
Po - Атмосферное давление - измеренное на уровне метеостанции атмосферное давление.
Tmin - Минимальная температура - минимум температуры воздуха на высоте 2 м над землей.
Tmax - Максимальная температура - максимум температуры воздуха на высоте 2 м над землей.
R - Количество осадков - Количество выпавших осадков за период времени, мм. При наведении курсора мыши на число - период времени, за который выпало указанное количество осадков.
R24 - Количество осадков - Количество выпавших осадков за 24 часа, мм.
S - Снежный покров - Высота снежного покрова, см. При наведении курсора мыши на число - состояние снежного покрова и степень покрытия местности в баллах.